COSMOS 2251 DEB

Satellite information

Favourite Embed

Satellite Type and Status

DEBRISIN ORBIT

Key statistics

Satellite COSMOS 2251 DEB at a glance.

Uptime

11869

Days in orbit

Revolutions

≈ 13.7

Per day

Orbit

LEO

Low Earth Orbit

Inclination

74.1

Latest

Satellite identification and parameters

Extended collection of information and parameters for COSMOS 2251 DEB.

Object identification

Identified? True

Debris? True

Object name: COSMOS 2251 DEB

International designator: 1993-036DV

Object number (NORAD): 33916

Object ID (CCSDS): 33916

Country: COMMONWEALTH OF INDEPENDENT STATES (CIS)

Current information (Y/N): Y

RCS size: MEDIUM

Orbital parameters

Period: 105.216 minutes

Inclination: 74.0528 deg

SMA: 7382.683 km

Apoapsis: 1244.705 km

Periapsis: 764.39 km

RAAN: 39.1158 deg

Eccentricy: 0.03252983

Argument of periapsis: 211.066 deg

Mean anomaly: 276.1981 deg

Mean motion: 13.6861554 rev/day

Mean motion (dot): 0.00000744 rev/day2

B* drag term: 0.00061729921 1/REarth

Two-line elements (TLE)

Creation date: Dec. 14, 2025, 3:07 a.m.

Reference frame: TEME

Reference center: EARTH

Epoch: Dec. 13, 2025, 3:16 p.m. UTC

TLE line 0: 0 COSMOS 2251 DEB

TLE line 1: 1 33916U 93036DV 25347.63617899 .00000744 00000-0 61730-3 0 9998

TLE line 2: 2 33916 74.0528 39.1158 0325298 211.0660 276.1981 13.68615540839038

Live tracking on map

Real-time ground track for satellite COSMOS 2251 DEB.

In-orbit conjunctions

A list of the most updated potential collisions computed for object COSMOS 2251 DEB.

Target Orbit TCA Probability of collision Miss distance Type
CZ-2D R/B LEO 2024-10-20 21:31:25 0.0001616818 445.0 (m) ROCKET BODY
COSMOS 2251 DEB LEO 2024-09-17 14:51:22 0.0001371664 112.0 (m) DEBRIS

Associated space launch

Military communications satellite. Destroyed in a collision with Iridium 33.

COSMOS 2251 DEB was lifted into orbit during the mission ‘Kosmos-3M | Strela-2M 51’, on board a Kosmos-3M space rocket.

The launch took place on June 16, 1993, 4:17 a.m. from 132/1 (132L).

For more information about the launch, click the button.

Launch to space Kosmos-3M | Strela-2M 51
Kosmos-3M | Strela-2M 51

Agency: N/A

Status: Launch Successful

Launch date: June 16, 1993, 4:17 a.m. UTC

Rocket: Kosmos-3M

Launch pad: 132/1 (132L)

Location: Plesetsk Cosmodrome, Russian Federation

...

Latest news about this satellite

There are no fresh news available about this satellite. Check back as we update our databases every day.


Newsletter sign-up

Weekly statistics, charts and insights to help you stay on top of the space industry.